When you browse on this site, cookies collect data to enhance your experience and personalize the content and advertising you see.
Visit our Privacy Policy to learn more. By continuing to use the site, you agree to this use of cookies and data.
  • In Lithuania
  • List of Countries
  • For 7 days
  • Water Temperature
  • Satellite Maps
  • Weather Map
  • Weather Widgets
  • user-avatar
    Login

    Hourly Weather Hobart

    Today, 21 April, Sunday

    Time Temperature Precipitation Wind Pressure Humidity
    00:00 +13°C° 0 mm 3 mps 751 mmHg 91%
    01:00 +13°C° 0 mm 3 mps 751 mmHg 91%
    02:00 +13°C° 0 mm 3 mps 751 mmHg 91%
    03:00 +13°C° 0 mm 3 mps 750 mmHg 91%
    04:00 +14°C° 0 mm 2 mps 750 mmHg 93%
    05:00 +14°C° 0 mm 2 mps 750 mmHg 93%
    06:00 +13°C° 0 mm 3 mps 750 mmHg 93%
    07:00 +13°C° 0 mm 3 mps 750 mmHg 93%
    08:00 +16°C° 0 mm 3 mps 750 mmHg 80%
    09:00 +19°C° 0 mm 3 mps 750 mmHg 68%
    10:00 +22°C° 0 mm 3 mps 750 mmHg 57%
    11:00 +25°C° 0 mm 3 mps 749 mmHg 50%
    12:00 +26°C° 0 mm 3 mps 749 mmHg 43%
    13:00 +28°C° 0 mm 3 mps 749 mmHg 37%
    14:00 +28°C° 0 mm 3 mps 749 mmHg 38%
    15:00 +28°C° 0 mm 3 mps 748 mmHg 39%
    16:00 +27°C° 0 mm 3 mps 748 mmHg 42%
    17:00 +25°C° 0 mm 3 mps 748 mmHg 48%
    18:00 +22°C° 0 mm 3 mps 749 mmHg 55%
    19:00 +20°C° 0 mm 3 mps 749 mmHg 62%
    20:00 +19°C° 0 mm 3 mps 749 mmHg 63%
    21:00 +19°C° 0 mm 2 mps 749 mmHg 65%
    22:00 +19°C° 0 mm 2 mps 749 mmHg 65%
    23:00 +18°C° 0.2 mm 2 mps 749 mmHg 70%

    Tomorrow, 22 April, Monday

    Time Temperature Precipitation Wind Pressure Humidity
    00:00 +19°C° 0.2 mm 1 mps 749 mmHg 75%
    01:00 +18°C° 0.2 mm 1 mps 749 mmHg 80%
    02:00 +16°C° 0.2 mm 1 mps 750 mmHg 82%
    03:00 +16°C° 0.2 mm 2 mps 750 mmHg 84%
    04:00 +15°C° 0.2 mm 2 mps 750 mmHg 86%
    05:00 +14°C° 0 mm 2 mps 751 mmHg 86%
    06:00 +12°C° 0 mm 2 mps 751 mmHg 85%
    07:00 +10°C° 0 mm 2 mps 752 mmHg 85%
    08:00 +12°C° 0 mm 2 mps 752 mmHg 77%
    09:00 +13°C° 0 mm 2 mps 753 mmHg 69%
    10:00 +14°C° 0 mm 2 mps 753 mmHg 61%
    11:00 +15°C° 0 mm 2 mps 753 mmHg 58%
    12:00 +15°C° 0 mm 2 mps 754 mmHg 56%
    13:00 +16°C° 0 mm 3 mps 754 mmHg 53%
    14:00 +16°C° 0 mm 3 mps 754 mmHg 53%
    15:00 +16°C° 0 mm 3 mps 754 mmHg 54%
    16:00 +16°C° 0 mm 3 mps 754 mmHg 54%
    17:00 +14°C° 0 mm 2 mps 755 mmHg 62%
    18:00 +12°C° 0 mm 2 mps 755 mmHg 69%
    19:00 +11°C° 0 mm 1 mps 756 mmHg 77%
    20:00 +10°C° 0 mm 1 mps 756 mmHg 80%
    21:00 +10°C° 0 mm 1 mps 756 mmHg 83%
    22:00 +8°C° 0 mm 2 mps 756 mmHg 85%
    23:00 +9°C° 0 mm 1 mps 756 mmHg 86%

    Day after tomorrow, 23 April, Tuesday

    Time Temperature Precipitation Wind Pressure Humidity
    00:00 +9°C° 0 mm 1 mps 756 mmHg 87%
    01:00 +9°C° 0 mm 1 mps 756 mmHg 87%
    02:00 +8°C° 0 mm 1 mps 756 mmHg 88%
    03:00 +8°C° 0 mm 1 mps 756 mmHg 89%
    04:00 +8°C° 0 mm 1 mps 756 mmHg 89%
    05:00 +8°C° 0 mm 1 mps 756 mmHg 89%
    06:00 +8°C° 0 mm 1 mps 756 mmHg 89%
    07:00 +8°C° 0 mm 1 mps 756 mmHg 89%
    08:00 +10°C° 0 mm 1 mps 756 mmHg 79%
    09:00 +13°C° 0 mm 1 mps 756 mmHg 68%
    10:00 +16°C° 0 mm 1 mps 756 mmHg 57%
    11:00 +18°C° 0 mm 1 mps 756 mmHg 55%
    12:00 +19°C° 0 mm 2 mps 755 mmHg 53%
    13:00 +20°C° 0 mm 2 mps 755 mmHg 51%
    14:00 +19°C° 0 mm 2 mps 755 mmHg 53%
    15:00 +19°C° 0 mm 2 mps 755 mmHg 56%
    16:00 +18°C° 0 mm 3 mps 754 mmHg 59%
    17:00 +17°C° 0 mm 2 mps 755 mmHg 66%
    18:00 +16°C° 0 mm 2 mps 755 mmHg 73%
    19:00 +14°C° 0 mm 1 mps 755 mmHg 80%
    20:00 +14°C° 0 mm 1 mps 755 mmHg 82%
    21:00 +13°C° 0 mm 1 mps 755 mmHg 85%
    22:00 +13°C° 0 mm 1 mps 755 mmHg 87%
    23:00 +12°C° 0 mm 1 mps 755 mmHg 89%

    24 April, Wednesday

    Time Temperature Precipitation Wind Pressure Humidity
    00:00 +12°C° 0 mm 1 mps 755 mmHg 90%
    01:00 +11°C° 0 mm 1 mps 755 mmHg 92%
    02:00 +11°C° 0 mm 1 mps 754 mmHg 92%
    03:00 +11°C° 0 mm 1 mps 754 mmHg 93%
    04:00 +10°C° 0 mm 1 mps 754 mmHg 94%
    05:00 +10°C° 0 mm 1 mps 754 mmHg 92%
    06:00 +11°C° 0 mm 1 mps 753 mmHg 90%
    07:00 +11°C° 0 mm 1 mps 753 mmHg 88%
    08:00 +12°C° 0 mm 1 mps 753 mmHg 80%
    09:00 +14°C° 0 mm 2 mps 753 mmHg 72%
    10:00 +15°C° 0 mm 2 mps 752 mmHg 64%
    11:00 +16°C° 0 mm 2 mps 752 mmHg 57%
    12:00 +18°C° 0 mm 3 mps 751 mmHg 50%
    13:00 +19°C° 0 mm 3 mps 750 mmHg 43%
    14:00 +19°C° 0 mm 4 mps 749 mmHg 43%
    15:00 +19°C° 0 mm 5 mps 748 mmHg 43%
    16:00 +17°C° 0 mm 6 mps 748 mmHg 43%
    17:00 +16°C° 0 mm 5 mps 747 mmHg 51%
    18:00 +15°C° 0 mm 5 mps 747 mmHg 59%
    19:00 +13°C° 0 mm 5 mps 747 mmHg 67%
    20:00 +13°C° 0 mm 5 mps 747 mmHg 65%
    21:00 +14°C° 0 mm 5 mps 747 mmHg 64%
    22:00 +14°C° 0 mm 6 mps 747 mmHg 63%
    23:00 +13°C° 0 mm 6 mps 747 mmHg 64%

    25 April, Thursday

    Time Temperature Precipitation Wind Pressure Humidity
    00:00 +12°C° 0 mm 5 mps 746 mmHg 64%
    01:00 +12°C° 0 mm 5 mps 746 mmHg 65%
    02:00 +11°C° 0 mm 4 mps 746 mmHg 67%
    03:00 +11°C° 0 mm 4 mps 746 mmHg 68%
    04:00 +11°C° 0 mm 3 mps 745 mmHg 69%
    05:00 +11°C° 0 mm 3 mps 746 mmHg 69%
    06:00 +11°C° 0 mm 3 mps 746 mmHg 68%
    07:00 +11°C° 0 mm 3 mps 746 mmHg 68%
    08:00 +11°C° 0 mm 4 mps 746 mmHg 65%
    09:00 +12°C° 0 mm 5 mps 746 mmHg 63%
    10:00 +13°C° 0 mm 5 mps 746 mmHg 60%
    11:00 +13°C° 0 mm 5 mps 745 mmHg 58%
    12:00 +14°C° 0 mm 6 mps 744 mmHg 55%
    13:00 +15°C° 0 mm 6 mps 744 mmHg 53%
    14:00 +14°C° 0 mm 6 mps 743 mmHg 55%
    15:00 +14°C° 0 mm 6 mps 742 mmHg 58%
    16:00 +14°C° 0 mm 6 mps 742 mmHg 60%
    17:00 +13°C° 0 mm 6 mps 741 mmHg 60%
    18:00 +12°C° 0 mm 7 mps 740 mmHg 61%
    19:00 +12°C° 0 mm 7 mps 740 mmHg 62%
    20:00 +12°C° 0 mm 7 mps 739 mmHg 61%
    21:00 +12°C° 0 mm 8 mps 738 mmHg 60%
    22:00 +13°C° 0 mm 8 mps 738 mmHg 59%
    23:00 +11°C° 0.6 mm 8 mps 738 mmHg 65%

    26 April, Friday

    Time Temperature Precipitation Wind Pressure Humidity
    00:00 +9°C° 0.6 mm 8 mps 737 mmHg 71%
    01:00 +7°C° 0.6 mm 8 mps 737 mmHg 77%
    02:00 +6°C° 0.1 mm 8 mps 737 mmHg 75%
    03:00 +5°C° 0.1 mm 8 mps 738 mmHg 74%
    04:00 +4°C° 0.1 mm 7 mps 738 mmHg 72%
    05:00 +4°C° 0 mm 7 mps 738 mmHg 70%
    06:00 +4°C° 0 mm 7 mps 739 mmHg 67%
    07:00 +5°C° 0 mm 7 mps 739 mmHg 65%
    08:00 +5°C° 0 mm 8 mps 740 mmHg 59%
    09:00 +6°C° 0 mm 9 mps 740 mmHg 54%
    10:00 +7°C° 0 mm 10 mps 741 mmHg 48%
    11:00 +7°C° 0.1 mm 10 mps 741 mmHg 48%
    12:00 +7°C° 0.1 mm 10 mps 741 mmHg 48%
    13:00 +7°C° 0.1 mm 10 mps 742 mmHg 48%
    14:00 +7°C° 0.1 mm 9 mps 742 mmHg 50%
    15:00 +7°C° 0.1 mm 9 mps 743 mmHg 52%
    16:00 +6°C° 0.1 mm 9 mps 743 mmHg 54%
    17:00 +6°C° 0 mm 8 mps 744 mmHg 58%
    18:00 +5°C° 0 mm 7 mps 745 mmHg 61%
    19:00 +5°C° 0 mm 7 mps 745 mmHg 64%
    20:00 +5°C° 0 mm 6 mps 745 mmHg 65%
    21:00 +6°C° 0 mm 5 mps 745 mmHg 67%
    22:00 +6°C° 0 mm 5 mps 745 mmHg 68%
    23:00 +6°C° 0 mm 5 mps 744 mmHg 68%
    Show more